Altus AFB, OK

1:47 AM CST on December 15, 2017 (GMT -0600)
Altus Air Force Base

Weather History for KLTS - October, 2011

Change the Weather History Date:

Sunday, October 16, 2011

  Actual Average Record
Temperature  
Mean Temperature 71 °F -  
Max Temperature 90 °F 73 °F 95 °F (2014)
Min Temperature 53 °F 49 °F 33 °F (2001)
Cooling Degree Days 6    
Growing Degree Days 21 (Base 50)    
Moisture  
Dew Point 53 °F    
Average Humidity 61    
Maximum Humidity 92    
Minimum Humidity 25    
Precipitation  
Precipitation 0.00 in - - ()
Sea Level Pressure  
Sea Level Pressure 29.92 in    
Wind  
Wind Speed 7 mph (SSE)    
Max Wind Speed 16 mph    
Max Gust Speed -    
Visibility 10 miles    
Events      
Averages and records for this station are not official NWS values.
T = Trace of Precipitation, MM = Missing Value Source: NWS Daily Summary

Daily Weather History Graph

Daily Weather History Graph

Search for Another Location

Airport or City:

Trip Planner

Search our weather history database for the weather conditions in past years. The results will help you decide how hot, cold, wet, or windy it might be!

Date:

Astronomy

Oct. 16, 2011 Rise Set
Actual Time 7:43 AM CDT 7:01 PM CDT
Civil Twilight 7:17 AM CDT 7:26 PM CDT
Nautical Twilight 6:48 AM CDT 7:56 PM CDT
Astronomical Twilight 6:19 AM CDT 8:25 PM CDT
Moon 9:59 PM CDT (10/16) 11:51 AM CDT (10/16)
Length of Visible Light 12h 08m
Length of Day
11h 18m
Waning Gibbous, 82% of the Moon is Illuminated
Oct 16
Waning Gibbous
Oct 19
Last Quarter
Oct 26
New
Nov 2
First Quarter
Nov 10
Full

Hourly Weather History & Observations

Time (CDT) Temp. Heat Index Dew Point Humidity Pressure Visibility Wind Dir Wind Speed Gust Speed Precip Events Conditions
12:55 AM 60.8 °F - 54.0 °F 78% 29.97 in 10.0 mi SSE 5.8 mph - N/A   Clear
1:55 AM 57.7 °F - 53.2 °F 85% 29.97 in 10.0 mi SSE 3.5 mph - N/A   Clear
2:55 AM 58.8 °F - 53.2 °F 82% 29.96 in 10.0 mi SSE 4.6 mph - N/A   Clear
3:55 AM 56.7 °F - 52.9 °F 87% 29.96 in 10.0 mi SE 3.5 mph - N/A   Clear
4:55 AM 55.9 °F - 52.7 °F 89% 29.95 in 10.0 mi SE 3.5 mph - N/A   Clear
5:55 AM 54.1 °F - 52.0 °F 92% 29.96 in 10.0 mi SE 4.6 mph - N/A   Clear
6:55 AM 54.0 °F - 51.8 °F 92% 29.97 in 10.0 mi SSE 4.6 mph - N/A   Clear
7:55 AM 53.6 °F - 51.3 °F 92% 29.98 in 10.0 mi SSE 5.8 mph - N/A   Clear
8:55 AM 58.8 °F - 53.6 °F 83% 29.99 in 10.0 mi South 4.6 mph - N/A   Clear
9:55 AM 67.8 °F - 54.1 °F 62% 30.00 in 10.0 mi SSW 8.1 mph - N/A   Clear
10:55 AM 74.5 °F - 53.8 °F 48% 30.00 in 10.0 mi SW 10.4 mph - N/A   Clear
11:55 AM 80.6 °F 80.3 °F 53.2 °F 39% 29.96 in 10.0 mi SW 15.0 mph - N/A   Clear
12:55 PM 84.6 °F - 52.2 °F 33% 29.94 in 10.0 mi SW 12.7 mph - N/A   Clear
1:55 PM 87.6 °F - 50.9 °F 28% 29.91 in 10.0 mi SSW 13.8 mph - N/A   Clear
2:55 PM 89.4 °F - 49.1 °F 25% 29.89 in 10.0 mi South 10.4 mph - N/A   Clear
3:55 PM 89.6 °F - 48.9 °F 25% 29.87 in 10.0 mi South 16.1 mph - N/A   Clear
4:55 PM 89.4 °F - 48.7 °F 25% 29.86 in 10.0 mi South 12.7 mph - N/A   Clear
5:55 PM 87.6 °F - 51.3 °F 29% 29.84 in 10.0 mi SSE 16.1 mph - N/A   Clear
6:55 PM 81.9 °F 81.0 °F 53.1 °F 37% 29.84 in 10.0 mi SSE 9.2 mph - N/A   Clear
7:55 PM 74.8 °F - 54.3 °F 49% 29.85 in 10.0 mi SE 9.2 mph - N/A   Clear
8:55 PM 71.4 °F - 55.4 °F 57% 29.86 in 10.0 mi SE 6.9 mph - N/A   Clear
9:55 PM 69.8 °F - 57.4 °F 65% 29.88 in 10.0 mi SSE 5.8 mph - N/A   Clear
10:55 PM 67.1 °F - 58.1 °F 73% 29.87 in 10.0 mi SE 5.8 mph - N/A   Clear
11:55 PM 64.9 °F - 57.6 °F 77% 29.87 in 10.0 mi East 3.5 mph - N/A   Clear